TimePDT,TemperatureF,Dew PointF,Humidity,Sea Level PressureIn,VisibilityMPH,Wind Direction,Wind SpeedMPH,Gust SpeedMPH,PrecipitationIn,Events,Conditions,WindDirDegrees,DateUTC
12:56 AM,48.9,45.0,86,30.30,10.0,Variable,5.8,-,N/A,,Overcast,0,2012-10-26 07:56:00
1:56 AM,50.0,45.0,83,30.32,10.0,Variable,3.5,-,N/A,,Overcast,0,2012-10-26 08:56:00
2:56 AM,47.8,45.9,93,30.30,10.0,Variable,4.6,-,N/A,,Overcast,0,2012-10-26 09:56:00
3:56 AM,48.9,47.8,96,30.29,10.0,Variable,4.6,-,0.00,,Overcast,0,2012-10-26 10:56:00
4:56 AM,48.9,48.9,100,30.28,10.0,Calm,Calm,-,0.00,Rain,Light Rain,0,2012-10-26 11:56:00
5:56 AM,47.8,46.9,97,30.29,10.0,Variable,4.6,-,0.00,Rain,Light Rain,0,2012-10-26 12:56:00
6:56 AM,50.9,45.0,80,30.29,10.0,Variable,4.6,-,0.00,,Mostly Cloudy,0,2012-10-26 13:56:00
7:56 AM,50.0,45.0,83,30.29,10.0,Variable,3.5,-,N/A,,Overcast,0,2012-10-26 14:56:00
8:27 AM,48.2,46.4,93,30.29,7.0,ESE,4.6,-,0.00,Rain,Light Rain,120,2012-10-26 15:27:00
8:56 AM,48.9,46.9,93,30.30,10.0,Variable,4.6,-,0.00,,Overcast,0,2012-10-26 15:56:00
9:56 AM,52.9,45.0,74,30.29,10.0,Variable,5.8,-,N/A,,Overcast,0,2012-10-26 16:56:00
10:56 AM,52.9,47.8,83,30.30,10.0,SE,5.8,-,N/A,,Overcast,140,2012-10-26 17:56:00
11:56 AM,54.9,50.0,84,30.29,8.0,East,5.8,-,N/A,,Overcast,90,2012-10-26 18:56:00
1:35 PM,55.4,53.6,94,30.26,7.0,Variable,4.6,-,0.00,,Mostly Cloudy,0,2012-10-26 20:35:00
1:56 PM,54.0,54.0,100,30.26,2.0,East,5.8,-,0.00,,Overcast,80,2012-10-26 20:56:00
2:04 PM,53.6,53.6,100,30.25,1.5,Variable,3.5,-,N/A,,Overcast,0,2012-10-26 21:04:00
2:13 PM,53.6,53.6,100,30.25,1.2,SE,3.5,-,N/A,,Overcast,130,2012-10-26 21:13:00
2:35 PM,55.4,55.4,100,30.25,1.5,Variable,3.5,-,N/A,,Overcast,0,2012-10-26 21:35:00
2:45 PM,55.4,55.4,100,30.25,1.8,East,3.5,-,N/A,,Overcast,100,2012-10-26 21:45:00
2:56 PM,54.9,54.9,100,30.25,3.0,Variable,3.5,-,N/A,,Overcast,0,2012-10-26 21:56:00
3:48 PM,55.4,55.4,100,30.24,5.0,SE,3.5,-,N/A,,Overcast,140,2012-10-26 22:48:00
3:56 PM,54.9,54.9,100,30.24,4.0,ESE,4.6,-,N/A,,Overcast,120,2012-10-26 22:56:00
4:15 PM,55.4,55.4,100,30.23,2.0,Variable,3.5,-,N/A,,Overcast,0,2012-10-26 23:15:00
4:38 PM,55.4,55.4,100,30.22,4.0,ESE,4.6,-,N/A,,Overcast,120,2012-10-26 23:38:00
4:56 PM,55.9,55.9,100,30.23,10.0,Variable,3.5,-,N/A,,Overcast,0,2012-10-26 23:56:00
5:56 PM,55.9,55.9,100,30.22,4.0,Variable,3.5,-,N/A,,Overcast,0,2012-10-27 00:56:00
6:17 PM,55.4,55.4,100,30.21,2.5,ESE,5.8,-,N/A,,Overcast,120,2012-10-27 01:17:00
6:25 PM,55.4,55.4,100,30.21,3.0,SE,4.6,-,N/A,,Overcast,130,2012-10-27 01:25:00
6:56 PM,54.9,-9999,N/A,30.23,5.0,Calm,Calm,-,N/A,,Haze,0,2012-10-27 01:56:00
7:47 PM,55.4,-9999,N/A,30.23,8.0,Calm,Calm,-,N/A,,Overcast,0,2012-10-27 02:47:00
7:56 PM,54.9,-9999,N/A,30.24,10.0,Calm,Calm,-,N/A,,Overcast,0,2012-10-27 02:56:00
8:31 PM,55.4,-9999,N/A,30.23,3.0,South,4.6,-,N/A,,Overcast,170,2012-10-27 03:31:00
8:39 PM,55.4,-9999,N/A,30.23,2.5,South,4.6,-,N/A,,Overcast,170,2012-10-27 03:39:00
8:56 PM,54.9,-9999,N/A,30.23,5.0,Variable,3.5,-,N/A,,Haze,0,2012-10-27 03:56:00
9:03 PM,55.4,-9999,N/A,30.22,6.0,Variable,4.6,-,N/A,,Haze,0,2012-10-27 04:03:00
9:24 PM,55.4,-9999,N/A,30.22,7.0,SSE,4.6,-,N/A,,Overcast,160,2012-10-27 04:24:00
10:19 PM,55.4,-9999,N/A,30.22,10.0,SSE,5.8,-,N/A,,Overcast,160,2012-10-27 05:19:00
10:56 PM,54.9,-9999,N/A,30.21,10.0,East,3.5,-,N/A,,Overcast,80,2012-10-27 05:56:00
11:25 PM,53.6,-9999,N/A,30.20,10.0,Calm,Calm,-,N/A,,Scattered Clouds,0,2012-10-27 06:25:00
11:56 PM,54.0,-9999,N/A,30.20,10.0,Calm,Calm,-,N/A,,Clear,0,2012-10-27 06:56:00